Location: Chena
(64.8152°N, 147.9227°W)
Time: 13:20:13
(UTC+00:00)

N. Korean satellite - Pass Details

Date: 24 January 2021
Orbit: 451 x 503 km, 97.2° (Epoch: 28 February)

Event Time Altitude Azimuth Distance (km) Brightness Sun altitude
Rises 17:38:13 0° 16° (NNE) 2,551 10.1 -7.7°
Reaches altitude 10° 17:40:42 10° 359° (N) 1,657 9.0 -7.5°
Maximum altitude 17:43:16 19° 312° (NW) 1,187 7.9 -7.2°
Drops below altitude 10° 17:45:48 10° 266° (W) 1,630 8.7 -7.0°
Sets 17:48:13 0° 248° (WSW) 2,493 9.8 -6.8°
